This demonstration page uses our WeatherBlox Daily Observations layout. Learn more.

Left ArrowRight Arrow

39.92423, -83.80882

Hourly Observations for August 22, 2022

Temp ( °F °C ) Dew Point ( °F °C ) Humidity (%) Winds ( mph kmh ) Pressure ( in mb ) Visibility ( mi km ) Precip ( " mm )
12:56 am 00:56 Cloudy with Fog N/A N/A N/A Calm 30.01 1016 0 0 0.00 0.00
1:56 am 01:56 Cloudy with Fog N/A N/A N/A WNW 5 7 30.00 1016 1 1 0.00 0.00
2:24 am 02:24 Cloudy with Mist and Fog N/A N/A N/A WNW 5 7 30.00 1016 1 1 0.00 0.00
2:30 am 02:30 Mostly Cloudy with Mist and Fog N/A N/A N/A WNW 6 9 30.00 1016 1 2 0.00 0.00
2:37 am 02:37 Mostly Cloudy with Mist and Fog N/A N/A N/A WNW 6 9 30.00 1016 3 5 0.00 0.00
2:51 am 02:51 Mostly Cloudy with Fog N/A N/A N/A NW 5 7 30.00 1016 0 0 0.00 0.00
2:56 am 02:56 Mostly Cloudy with Fog N/A N/A N/A WNW 5 7 30.00 1016 0 0 0.00 0.00
3:29 am 03:29 Cloudy with Fog N/A N/A N/A NW 5 7 30.00 1016 1 1 0.00 0.00
3:56 am 03:56 Cloudy with Mist and Fog N/A N/A N/A NNW 7 11 30.00 1016 1 1 0.00 0.00
4:06 am 04:06 Cloudy with Mist and Fog N/A N/A N/A NNW 6 9 30.01 1016 1 2 0.00 0.00
4:14 am 04:14 Cloudy with Mist and Fog N/A N/A N/A NW 6 9 30.00 1016 2 3 0.00 0.00
4:21 am 04:21 Cloudy with Mist and Fog N/A N/A N/A NNW 7 11 30.01 1016 2 3 0.00 0.00
4:37 am 04:37 Cloudy with Mist and Fog N/A N/A N/A NW 5 7 30.01 1016 2 2 0.00 0.00
4:56 am 04:56 Cloudy with Mist and Fog N/A N/A N/A NW 3 6 30.01 1016 2 2 0.00 0.00
5:01 am 05:01 Cloudy with Mist and Fog N/A N/A N/A NW 5 7 30.00 1016 1 1 0.00 0.00
5:10 am 05:10 Cloudy with Fog N/A N/A N/A NW 6 9 30.00 1016 1 1 0.00 0.00
5:22 am 05:22 Cloudy with Fog N/A N/A N/A NW 6 9 30.00 1016 0 0 0.00 0.00
5:34 am 05:34 Cloudy with Mist and Fog N/A N/A N/A NW 7 11 30.00 1016 1 1 0.00 0.00
5:56 am 05:56 Cloudy with Fog N/A N/A N/A NW 7 11 30.01 1016 1 1 0.00 0.00
6:56 am 06:56 Cloudy with Fog N/A N/A N/A NW 5 7 30.03 1017 0 0 0.01 0.25
7:07 am 07:07 Cloudy with Mist and Fog N/A N/A N/A NNW 7 11 30.03 1017 1 1 0.00 0.00
7:35 am 07:35 Cloudy with Mist and Fog N/A N/A N/A NNW 5 7 30.04 1017 1 2 0.00 0.00
7:56 am 07:56 Cloudy with Mist and Fog N/A N/A N/A NW 6 9 30.05 1018 2 3 0.00 0.00
8:05 am 08:05 Cloudy with Mist and Fog N/A N/A N/A NW 7 11 30.05 1018 3 5 0.00 0.00
8:30 am 08:30 Cloudy with Mist and Fog N/A N/A N/A NW 6 9 30.05 1018 3 5 0.00 0.00
8:46 am 08:46 Cloudy with Mist and Fog N/A N/A N/A NW 10 17 30.05 1018 3 4 0.00 0.00
8:53 am 08:53 Cloudy with Mist and Fog N/A N/A N/A NW 8 13 30.05 1018 3 5 0.00 0.00
8:56 am 08:56 Cloudy with Haze N/A N/A N/A NW 8 13 30.05 1018 4 6 0.00 0.00
9:56 am 09:56 Cloudy N/A N/A N/A NW 9 15 30.06 1018 7 11 0.00 0.00
10:56 am 10:56 Cloudy 67 19.4 N/A N/A NW 8 13 30.00 1016 7 11 0.00 0.00
11:16 am 11:16 Cloudy 68 20 N/A N/A NW 6 9 29.99 1016 8 13 0.00 0.00
11:27 am 11:27 Cloudy 70 21 N/A N/A WNW 7 11 29.99 1016 9 14 0.00 0.00
11:49 am 11:49 Cloudy 70 21 N/A N/A NNW 8 13 29.99 1016 9 14 0.00 0.00
11:56 am 11:56 Cloudy 69 20.6 N/A N/A NNW 6 9 30.00 1016 10 16 0.00 0.00
12:05 pm 12:05 Cloudy 70 21 N/A N/A WNW 8 13 30.00 1016 10 16 0.00 0.00
12:56 pm 12:56 Cloudy 73 22.8 66 18.9 79 79 NNW 10 17 29.98 1015 10 16 0.00 0.00
1:16 pm 13:16 Cloudy 73 23 66 19 78 78 NNW 10 17 29.98 1015 10 16 0.00 0.00
1:56 pm 13:56 Cloudy 75 23.9 66 18.9 74 74 NW 8 13 29.98 1015 10 16 0.00 0.00
2:46 pm 14:46 Cloudy 73 23 68 20 83 83 WNW 9 15 29.97 1015 10 16 0.00 0.00
2:56 pm 14:56 Cloudy 73 22.8 67 19.4 81 81 NW 10 17 29.97 1015 10 16 0.00 0.00
3:04 pm 15:04 Cloudy 73 23 66 19 78 78 NW 13 20 29.97 1015 10 16 0.00 0.00
3:56 pm 15:56 Cloudy 75 23.9 65 18.3 71 71 N 10 17 29.96 1014 10 16 0.00 0.00
4:56 pm 16:56 Partly Cloudy 75 23.9 64 17.8 69 69 NNW 8 13 29.95 1014 10 16 0.00 0.00
5:56 pm 17:56 Mostly Sunny 76 24.4 64 17.8 67 67 NNW 9 15 29.95 1014 10 16 0.00 0.00
6:56 pm 18:56 Sunny 76 24.4 65 18.3 69 69 NW 6 9 29.95 1014 9 14 0.00 0.00
7:56 pm 19:56 Sunny 72 22.2 67 19.4 84 84 W 3 6 29.95 1014 10 16 0.00 0.00
8:56 pm 20:56 Clear 66 18.9 N/A N/A Calm 29.97 1015 10 16 0.00 0.00
9:08 pm 21:08 Mostly Clear 66 19 N/A N/A W 3 6 29.98 1015 10 16 0.00 0.00
9:56 pm 21:56 Clear N/A N/A N/A WSW 3 6 30.05 1018 10 16 0.00 0.00
10:56 pm 22:56 Clear N/A N/A N/A SW 5 7 30.06 1018 9 14 0.00 0.00
11:56 pm 23:56 Clear N/A N/A N/A Calm 30.07 1018 7 11 0.00 0.00

Powered by AerisWeather